STARLINK-3751, 52289

Orbit data source: Space-Track

STARLINK-3751, 52289 is a payload satellite owned by SpaceX/Seattle (US) in LEO that was launched on Thu, 21 Apr 2022 UTC via an FALCON 9 launch vehicle from the Air Force Eastern Test Range (AFETR). Payload-class satellites include a variety of spacecraft equipped with specific instruments for various scientific and technological missions. These include communications satellites like Starlink; space stations such as the ISS; scientific satellites like the Hubble; Earth observation satellites from companies like Planet Labs, Umbra, and HawkEye 360; GPS; miniature CubeSats for education and research; and military/defense satellites.

Loading next visibility...
Identifier
52289, 2022-041AE
Orbit
LEO
Country
Flag of USUS
Related business
Manufacturer
SpaceX/Seattle
Mission
Operational Commercial Communications
Bus & Motor
STARLINK, Unknown motor
Mass
297 kg wet, ~275 kg dry
Launch date (UTC)
2022-04-21 (4 years ago)
Launch vehicle
FALCON 9
Launch site
Air Force Eastern Test Range (AFETR)
Object type
Payload
Rocket body
Debris
Shape & HBR
Box + 1 Pan, 10.1 m
Radar Cross Section
11.087 m², Large (>1 m²)

Expand to show TLE details & history
Last TLE update: 12 hours ago

TLE from 12 hours ago
0 STARLINK-3751
1 52289U 22041AE  26206.54115642  .00001159  00000-0  49104-4 0  9997
2 52289  53.1604 196.9752 0000963  97.4475 262.6636 15.31697408235353
Epoch: 2026-07-25T12:59Z
TLE epoch observation values (Epoch: 2026-07-25T12:59:15.914Z)
Latitude
-0.00002°
Longitude
58.90692°
Altitude
471.732 km
Speed
7.631 km/s
True Right ascension
13h 07m 54s
True Declination
0° 00' 00"
Sunlit
Object was in daylight at epoch
Visualization orbit readout
Latitude
Unknown
Longitude
Unknown
Altitude
Unknown
Speed
Unknown
Apparent Right ascension
Unknown
Apparent Declination
Unknown
Sunlit
N/A
Visualization observer readout
Local Sidereal Time
13:49:50
Azimuth
Unknown
Elevation
Unknown
Doppler factor
Unknown
Orbital elements
Apogee altitude
471.664 km
Perigee altitude
470.345 km
Semi-major axis
6,849.141 km
Eccentricity
0.0001
Inclination
53.1604°
RAAN
196.9752°
Arg. of periapsis
97.4475°
True anomaly
262.65266°
Mean anomaly
262.6636°
Eccentric anomaly
262.65813°
Mean motion
3.82903 °/min
Orbital period
94.02 mins
BSTAR
0.000049104
Loading maneuver chart data...
Computing Atmospheric mass density...
Loading historical data...
Loading historical data...
Loading historical data...
Loading historical data...
Loading historical data...
Loading historical data...
Loading historical data...

Documentation

Showing up to 5 results
|